Location: Unspecified
(35.7250°N, 0.0000°E)
Time: 22:40:43
(UTC+00:00)

Vanguard 2 - Pass Details

Date: 21 June 2019
Orbit: 554 x 2937 km, 32.9° (Epoch: 22 October)

Event Time Altitude Azimuth Distance (km) Brightness Sun altitude
Rises 13:53:05 0° 278° (W) 4,726 11.9 63.0°
Reaches altitude 10° 13:55:59 10° 272° (W) 4,030 11.8 62.4°
Maximum altitude 14:06:33 43° 205° (SSW) 3,003 11.7 60.4°
Drops below altitude 10° 14:21:43 10° 142° (SE) 5,666 11.9 57.4°
Sets 14:26:44 0° 136° (SE) 6,771 12.2 56.4°
